N21DC KJQF-KJYO

Flight info

Callsign N21DC
Flight time 1h 28m
Altitude 7000
Route GSO V143 LYH V476 GVE V453 CSN
Aircraft S22T/L-G/S

Departure

Time 2026-05-07 01:24
Airport Concord-Padgett Regional Airport (KJQF)

Arrival

Time 2026-05-07 02:52
Airport Leesburg Executive Airport (KJYO)
Time Latitude Longitude Altitude Speed Heading
2026-05-07 01:05 35.38643 -80.71200 671 ft 0 kts 195°
2026-05-07 01:09 35.38642 -80.71200 671 ft 0 kts 196°
2026-05-07 01:19 35.38640 -80.71201 671 ft 0 kts 196°
2026-05-07 01:20 35.38638 -80.71201 671 ft 3 kts 186°
2026-05-07 01:20 35.38662 -80.71182 672 ft 10 kts 12°
2026-05-07 01:20 35.38728 -80.71138 674 ft 14 kts 96°
2026-05-07 01:21 35.38769 -80.71054 676 ft 16 kts 10°
2026-05-07 01:21 35.38888 -80.71026 680 ft 20 kts 11°
2026-05-07 01:21 35.39032 -80.70994 684 ft 21 kts
2026-05-07 01:21 35.39175 -80.70960 689 ft 21 kts 10°
2026-05-07 01:22 35.39321 -80.70929 694 ft 21 kts
2026-05-07 01:22 35.39466 -80.70896 698 ft 19 kts 10°
2026-05-07 01:22 35.39591 -80.70867 702 ft 11 kts 12°
2026-05-07 01:22 35.39598 -80.70762 694 ft 19 kts 118°
2026-05-07 01:23 35.39455 -80.70761 697 ft 24 kts 186°
2026-05-07 01:23 35.39081 -80.70843 688 ft 85 kts 189°
2026-05-07 01:23 35.38413 -80.71001 802 ft 103 kts 197°
2026-05-07 01:23 35.37717 -80.71142 1092 ft 101 kts 185°
2026-05-07 01:24 35.37032 -80.71200 1421 ft 96 kts 188°
2026-05-07 01:24 35.36390 -80.71245 1778 ft 88 kts 191°
2026-05-07 01:24 35.35797 -80.71215 2082 ft 87 kts 181°
2026-05-07 01:24 35.35390 -80.70564 2253 ft 123 kts 99°
2026-05-07 01:25 35.35624 -80.69487 2635 ft 124 kts 83°
2026-05-07 01:25 35.35847 -80.68473 2944 ft 127 kts 81°
2026-05-07 01:25 35.36053 -80.67389 3192 ft 132 kts 81°
2026-05-07 01:25 35.36258 -80.66260 3427 ft 142 kts 82°
2026-05-07 01:26 35.36484 -80.65042 3668 ft 150 kts 82°
2026-05-07 01:26 35.36725 -80.63768 3913 ft 158 kts 82°
2026-05-07 01:26 35.36961 -80.62475 4254 ft 154 kts 82°
2026-05-07 01:26 35.37196 -80.61196 4549 ft 158 kts 82°
2026-05-07 01:27 35.37442 -80.59883 4860 ft 158 kts 82°
2026-05-07 01:27 35.37686 -80.58567 5163 ft 159 kts 82°
2026-05-07 01:27 35.37933 -80.57233 5427 ft 163 kts 81°
2026-05-07 01:27 35.38166 -80.55867 5714 ft 164 kts 82°
2026-05-07 01:28 35.38386 -80.54497 6017 ft 165 kts 81°
2026-05-07 01:28 35.38608 -80.53101 6323 ft 166 kts 81°
2026-05-07 01:28 35.38816 -80.51716 6622 ft 167 kts 82°
2026-05-07 01:28 35.39017 -80.50325 6935 ft 166 kts 82°
2026-05-07 01:29 35.39230 -80.48870 7025 ft 183 kts 82°
2026-05-07 01:29 35.39455 -80.47276 7028 ft 197 kts 81°
2026-05-07 01:29 35.39697 -80.45530 7024 ft 206 kts 82°
2026-05-07 01:29 35.39940 -80.43803 7019 ft 212 kts 81°
2026-05-07 01:30 35.40182 -80.42011 7021 ft 215 kts 82°
2026-05-07 01:30 35.40423 -80.40221 7017 ft 217 kts 82°
2026-05-07 01:30 35.40670 -80.38394 7023 ft 218 kts 82°
2026-05-07 01:30 35.40925 -80.36565 7020 ft 219 kts 82°
2026-05-07 01:31 35.41183 -80.34721 7025 ft 219 kts 82°
2026-05-07 01:31 35.41444 -80.32881 7030 ft 219 kts 81°
2026-05-07 01:31 35.41697 -80.31042 7038 ft 220 kts 81°
2026-05-07 01:31 35.41947 -80.29190 7034 ft 220 kts 82°
2026-05-07 01:32 35.42198 -80.27333 7045 ft 221 kts 82°
2026-05-07 01:32 35.42453 -80.25482 7048 ft 221 kts 81°
2026-05-07 01:32 35.42710 -80.23627 7044 ft 221 kts 81°
2026-05-07 01:32 35.42964 -80.21769 7045 ft 221 kts 81°
2026-05-07 01:33 35.43253 -80.19918 7043 ft 221 kts 72°
2026-05-07 01:33 35.44108 -80.18405 7027 ft 215 kts 31°
2026-05-07 01:33 35.45431 -80.17829 7027 ft 195 kts 350°
2026-05-07 01:33 35.46738 -80.18075 7035 ft 190 kts 339°
2026-05-07 01:34 35.48080 -80.18170 7031 ft 199 kts 355°
2026-05-07 01:34 35.49442 -80.17783 7051 ft 204 kts
2026-05-07 01:34 35.50799 -80.17237 7055 ft 205 kts
2026-05-07 01:34 35.52153 -80.16728 7050 ft 201 kts
2026-05-07 01:35 35.53492 -80.16246 7041 ft 199 kts
2026-05-07 01:35 35.54816 -80.15771 7039 ft 198 kts
2026-05-07 01:35 35.56136 -80.15296 7037 ft 197 kts
2026-05-07 01:35 35.57450 -80.14820 7024 ft 197 kts
2026-05-07 01:36 35.58763 -80.14345 7030 ft 197 kts
2026-05-07 01:36 35.60074 -80.13869 7024 ft 196 kts
2026-05-07 01:36 35.61419 -80.13381 7022 ft 196 kts
2026-05-07 01:36 35.62723 -80.12910 6996 ft 196 kts
2026-05-07 01:37 35.64030 -80.12433 6998 ft 196 kts
2026-05-07 01:37 35.65338 -80.11960 6998 ft 196 kts
2026-05-07 01:37 35.66644 -80.11485 7003 ft 196 kts
2026-05-07 01:37 35.67936 -80.11016 6999 ft 196 kts
2026-05-07 01:38 35.69254 -80.10536 7002 ft 195 kts
2026-05-07 01:38 35.70556 -80.10064 7004 ft 195 kts
2026-05-07 01:38 35.71855 -80.09592 7000 ft 194 kts
2026-05-07 01:38 35.73154 -80.09119 7002 ft 195 kts
2026-05-07 01:39 35.74456 -80.08646 7003 ft 195 kts
2026-05-07 01:39 35.75759 -80.08171 6987 ft 195 kts
2026-05-07 01:39 35.77053 -80.07700 6988 ft 194 kts
2026-05-07 01:39 35.78330 -80.07235 6992 ft 194 kts
2026-05-07 01:40 35.79640 -80.06759 6991 ft 194 kts
2026-05-07 01:40 35.80931 -80.06288 6990 ft 194 kts
2026-05-07 01:40 35.82228 -80.05816 6989 ft 195 kts
2026-05-07 01:40 35.83528 -80.05341 6991 ft 195 kts
2026-05-07 01:41 35.84811 -80.04872 6992 ft 195 kts
2026-05-07 01:41 35.86113 -80.04397 6991 ft 196 kts
2026-05-07 01:41 35.87425 -80.03919 6990 ft 197 kts
2026-05-07 01:41 35.88738 -80.03439 6991 ft 196 kts
2026-05-07 01:42 35.90045 -80.02961 6992 ft 196 kts
2026-05-07 01:42 35.91350 -80.02483 6995 ft 196 kts
2026-05-07 01:42 35.92665 -80.02004 6998 ft 197 kts
2026-05-07 01:42 35.93975 -80.01523 7001 ft 196 kts
2026-05-07 01:43 35.95284 -80.01045 7000 ft 196 kts
2026-05-07 01:43 35.96588 -80.00568 7003 ft 196 kts
2026-05-07 01:43 35.97896 -80.00089 7002 ft 196 kts
2026-05-07 01:43 35.99201 -79.99611 7005 ft 195 kts
2026-05-07 01:44 36.00502 -79.99135 7006 ft 195 kts
2026-05-07 01:44 36.01786 -79.98664 7007 ft 195 kts
2026-05-07 01:44 36.03087 -79.98187 7005 ft 195 kts
2026-05-07 01:44 36.04387 -79.97708 7007 ft 195 kts
2026-05-07 01:45 36.05632 -79.97013 7000 ft 199 kts 19°
2026-05-07 01:45 36.06881 -79.96247 7001 ft 199 kts 18°
2026-05-07 01:45 36.08121 -79.95504 7000 ft 198 kts 18°
2026-05-07 01:45 36.09361 -79.94763 7005 ft 199 kts 18°
2026-05-07 01:46 36.10607 -79.94013 7002 ft 199 kts 18°
2026-05-07 01:46 36.11850 -79.93263 7004 ft 199 kts 18°
2026-05-07 01:46 36.13086 -79.92518 7002 ft 198 kts 18°
2026-05-07 01:46 36.14310 -79.91780 7005 ft 198 kts 18°
2026-05-07 01:47 36.15548 -79.91033 7004 ft 198 kts 18°
2026-05-07 01:47 36.16788 -79.90284 7005 ft 198 kts 18°
2026-05-07 01:47 36.18026 -79.89537 7008 ft 198 kts 18°
2026-05-07 01:47 36.19269 -79.88787 7006 ft 199 kts 18°
2026-05-07 01:48 36.20512 -79.88037 7005 ft 199 kts 18°
2026-05-07 01:48 36.21758 -79.87283 7003 ft 199 kts 18°
2026-05-07 01:48 36.23006 -79.86529 6999 ft 199 kts 18°
2026-05-07 01:48 36.24252 -79.85776 6996 ft 200 kts 18°
2026-05-07 01:49 36.25506 -79.85018 6995 ft 201 kts 19°
2026-05-07 01:49 36.26765 -79.84254 6981 ft 201 kts 19°
2026-05-07 01:49 36.28020 -79.83496 6983 ft 200 kts 18°
2026-05-07 01:49 36.29253 -79.82750 6983 ft 201 kts 19°
2026-05-07 01:50 36.30511 -79.81987 6984 ft 201 kts 19°
2026-05-07 01:50 36.31769 -79.81226 6988 ft 201 kts 18°
2026-05-07 01:50 36.33026 -79.80466 6987 ft 201 kts 18°
2026-05-07 01:50 36.34255 -79.79604 6982 ft 205 kts 29°
2026-05-07 01:51 36.35390 -79.78501 6980 ft 206 kts 34°
2026-05-07 01:51 36.36529 -79.77368 6983 ft 205 kts 32°
2026-05-07 01:51 36.37277 -79.76653 6984 ft 206 kts 32°
2026-05-07 01:51 36.38418 -79.75569 6984 ft 206 kts 32°
2026-05-07 01:52 36.39552 -79.74484 6985 ft 205 kts 32°
2026-05-07 01:52 36.40681 -79.73404 6987 ft 204 kts 32°
2026-05-07 01:52 36.41809 -79.72325 6984 ft 205 kts 32°
2026-05-07 01:52 36.42936 -79.71246 6984 ft 204 kts 32°
2026-05-07 01:53 36.44062 -79.70167 6979 ft 204 kts 32°
2026-05-07 01:53 36.45183 -79.69093 6980 ft 203 kts 32°
2026-05-07 01:53 36.46301 -79.68022 6981 ft 204 kts 32°
2026-05-07 01:53 36.47408 -79.66959 6977 ft 204 kts 32°
2026-05-07 01:54 36.48527 -79.65886 6975 ft 203 kts 32°
2026-05-07 01:54 36.49643 -79.64815 7108 ft 200 kts 37°
2026-05-07 01:54 36.50727 -79.63770 7045 ft 194 kts 37°
2026-05-07 01:54 36.52126 -79.62427 7030 ft 194 kts 35°
2026-05-07 01:55 36.52852 -79.61735 7027 ft 196 kts 34°
2026-05-07 01:55 36.53939 -79.60691 7028 ft 198 kts 35°
2026-05-07 01:55 36.55031 -79.59639 7030 ft 199 kts 35°
2026-05-07 01:55 36.56111 -79.58600 7029 ft 199 kts 34°
2026-05-07 01:56 36.57206 -79.57546 7031 ft 199 kts 35°
2026-05-07 01:56 36.58303 -79.56489 7030 ft 200 kts 35°
2026-05-07 01:56 36.59401 -79.55430 7032 ft 199 kts 35°
2026-05-07 01:56 36.60500 -79.54374 7033 ft 200 kts 35°
2026-05-07 01:57 36.61600 -79.53313 7033 ft 200 kts 35°
2026-05-07 01:57 36.62701 -79.52252 7033 ft 200 kts 35°
2026-05-07 01:57 36.63800 -79.51192 7035 ft 200 kts 35°
2026-05-07 01:57 36.64901 -79.50128 7035 ft 201 kts 35°
2026-05-07 01:58 36.66005 -79.49064 7032 ft 200 kts 35°
2026-05-07 01:58 36.67105 -79.48003 7033 ft 200 kts 35°
2026-05-07 01:58 36.68205 -79.46940 7034 ft 200 kts 35°
2026-05-07 01:58 36.69310 -79.45873 7034 ft 201 kts 35°
2026-05-07 01:59 36.70414 -79.44806 7033 ft 201 kts 35°
2026-05-07 01:59 36.71503 -79.43752 7034 ft 201 kts 35°
2026-05-07 01:59 36.72606 -79.42686 7032 ft 201 kts 35°
2026-05-07 01:59 36.73710 -79.41617 7034 ft 201 kts 35°
2026-05-07 02:00 36.74814 -79.40548 7032 ft 201 kts 35°
2026-05-07 02:00 36.75917 -79.39481 7033 ft 201 kts 35°
2026-05-07 02:00 36.77022 -79.38412 7032 ft 201 kts 35°
2026-05-07 02:00 36.78125 -79.37344 7032 ft 200 kts 35°
2026-05-07 02:01 36.79227 -79.36274 7032 ft 201 kts 35°
2026-05-07 02:01 36.80330 -79.35204 7031 ft 201 kts 35°
2026-05-07 02:01 36.81431 -79.34136 7032 ft 200 kts 35°
2026-05-07 02:01 36.82517 -79.33081 7032 ft 201 kts 35°
2026-05-07 02:02 36.83618 -79.32013 7032 ft 201 kts 35°
2026-05-07 02:02 36.84719 -79.30943 7032 ft 201 kts 35°
2026-05-07 02:02 36.85821 -79.29873 7032 ft 200 kts 35°
2026-05-07 02:02 36.86921 -79.28805 7031 ft 200 kts 35°
2026-05-07 02:03 36.88019 -79.27736 7031 ft 200 kts 35°
2026-05-07 02:03 36.89114 -79.26672 7031 ft 200 kts 35°
2026-05-07 02:03 36.90212 -79.25604 7030 ft 200 kts 35°
2026-05-07 02:03 36.91293 -79.24552 7030 ft 200 kts 35°
2026-05-07 02:04 36.92391 -79.23483 7031 ft 200 kts 35°
2026-05-07 02:04 36.93490 -79.22412 7030 ft 200 kts 35°
2026-05-07 02:04 36.94591 -79.21339 7030 ft 200 kts 35°
2026-05-07 02:04 36.95690 -79.20266 7012 ft 202 kts 35°
2026-05-07 02:05 36.96804 -79.19181 6984 ft 202 kts 35°
2026-05-07 02:05 36.97911 -79.18101 6984 ft 201 kts 35°
2026-05-07 02:05 36.99010 -79.17028 6983 ft 201 kts 35°
2026-05-07 02:05 37.00114 -79.15951 6983 ft 201 kts 35°
2026-05-07 02:06 37.01215 -79.14874 6980 ft 201 kts 35°
2026-05-07 02:06 37.02314 -79.13801 6981 ft 200 kts 35°
2026-05-07 02:06 37.03398 -79.12743 6981 ft 200 kts 35°
2026-05-07 02:06 37.04496 -79.11670 6980 ft 201 kts 36°
2026-05-07 02:07 37.05594 -79.10593 6980 ft 200 kts 35°
2026-05-07 02:07 37.07789 -79.08446 6981 ft 200 kts 35°
2026-05-07 02:07 37.08886 -79.07372 6980 ft 200 kts 35°
2026-05-07 02:08 37.09981 -79.06299 6980 ft 200 kts 35°
2026-05-07 02:08 37.11078 -79.05224 6980 ft 200 kts 35°
2026-05-07 02:08 37.12172 -79.04152 6980 ft 200 kts 35°
2026-05-07 02:08 37.13273 -79.03072 6980 ft 201 kts 35°
2026-05-07 02:09 37.14372 -79.01995 6981 ft 201 kts 35°
2026-05-07 02:09 37.15455 -79.00932 6981 ft 201 kts 35°
2026-05-07 02:09 37.16555 -78.99850 6981 ft 201 kts 35°
2026-05-07 02:09 37.17654 -78.98770 6979 ft 201 kts 36°
2026-05-07 02:10 37.18762 -78.97684 6978 ft 202 kts 36°
2026-05-07 02:10 37.19872 -78.96592 6979 ft 203 kts 36°
2026-05-07 02:10 37.20985 -78.95497 6978 ft 204 kts 36°
2026-05-07 02:10 37.22099 -78.94399 6978 ft 204 kts 35°
2026-05-07 02:11 37.23215 -78.93303 6979 ft 204 kts 36°
2026-05-07 02:11 37.24330 -78.92204 6980 ft 204 kts 36°
2026-05-07 02:11 37.25452 -78.91101 6980 ft 204 kts 36°
2026-05-07 02:11 37.26568 -78.90001 6979 ft 204 kts 36°
2026-05-07 02:12 37.27688 -78.88898 6981 ft 205 kts 36°
2026-05-07 02:12 37.28809 -78.87791 6981 ft 205 kts 36°
2026-05-07 02:12 37.29914 -78.86701 6980 ft 205 kts 36°
2026-05-07 02:12 37.31029 -78.85600 7016 ft 203 kts 36°
2026-05-07 02:13 37.32141 -78.84502 7014 ft 204 kts 36°
2026-05-07 02:13 37.33255 -78.83406 7014 ft 204 kts 36°
2026-05-07 02:13 37.34372 -78.82301 7014 ft 204 kts 36°
2026-05-07 02:13 37.35489 -78.81196 7013 ft 204 kts 35°
2026-05-07 02:14 37.36605 -78.80093 7012 ft 204 kts 36°
2026-05-07 02:14 37.37719 -78.78990 7014 ft 204 kts 36°
2026-05-07 02:14 37.38834 -78.77888 7017 ft 204 kts 36°
2026-05-07 02:14 37.39950 -78.76783 7006 ft 205 kts 36°
2026-05-07 02:15 37.41068 -78.75675 6999 ft 204 kts 36°
2026-05-07 02:15 37.42185 -78.74568 7002 ft 204 kts 36°
2026-05-07 02:15 37.43284 -78.73479 7001 ft 203 kts 36°
2026-05-07 02:15 37.44393 -78.72379 7003 ft 203 kts 36°
2026-05-07 02:16 37.45509 -78.71274 7001 ft 204 kts 36°
2026-05-07 02:16 37.46620 -78.70172 6996 ft 203 kts 36°
2026-05-07 02:16 37.47727 -78.69074 6998 ft 203 kts 36°
2026-05-07 02:16 37.48837 -78.67971 6998 ft 203 kts 36°
2026-05-07 02:17 37.49945 -78.66870 6999 ft 203 kts 36°
2026-05-07 02:17 37.51051 -78.65771 6998 ft 203 kts 36°
2026-05-07 02:17 37.52161 -78.64667 6999 ft 204 kts 36°
2026-05-07 02:17 37.53275 -78.63560 7001 ft 204 kts 36°
2026-05-07 02:18 37.54387 -78.62452 7000 ft 203 kts 36°
2026-05-07 02:18 37.55498 -78.61347 6998 ft 204 kts 36°
2026-05-07 02:18 37.56611 -78.60239 6998 ft 204 kts 36°
2026-05-07 02:18 37.57712 -78.59143 7000 ft 204 kts 36°
2026-05-07 02:19 37.58825 -78.58032 6999 ft 204 kts 36°
2026-05-07 02:19 37.59942 -78.56920 7000 ft 204 kts 36°
2026-05-07 02:19 37.61060 -78.55804 7000 ft 205 kts 36°
2026-05-07 02:19 37.62176 -78.54691 6999 ft 205 kts 36°
2026-05-07 02:20 37.63293 -78.53577 6999 ft 205 kts 36°
2026-05-07 02:20 37.64409 -78.52462 7000 ft 205 kts 36°
2026-05-07 02:20 37.65528 -78.51345 6997 ft 205 kts 36°
2026-05-07 02:20 37.66647 -78.50227 6998 ft 205 kts 36°
2026-05-07 02:21 37.67763 -78.49112 6998 ft 205 kts 36°
2026-05-07 02:21 37.68862 -78.48010 6997 ft 205 kts 36°
2026-05-07 02:21 37.69977 -78.46897 6997 ft 204 kts 36°
2026-05-07 02:21 37.71102 -78.45771 6992 ft 204 kts 36°
2026-05-07 02:22 37.72211 -78.44661 6997 ft 204 kts 36°
2026-05-07 02:22 37.73326 -78.43544 6996 ft 204 kts 36°
2026-05-07 02:22 37.74435 -78.42432 6996 ft 203 kts 36°
2026-05-07 02:22 37.75545 -78.41320 6996 ft 203 kts 36°
2026-05-07 02:23 37.76654 -78.40208 6991 ft 204 kts 36°
2026-05-07 02:23 37.77765 -78.39093 6996 ft 204 kts 36°
2026-05-07 02:23 37.78857 -78.37996 6990 ft 203 kts 36°
2026-05-07 02:23 37.79965 -78.36885 6996 ft 203 kts 36°
2026-05-07 02:24 37.81073 -78.35772 6993 ft 203 kts 36°
2026-05-07 02:24 37.82181 -78.34660 6993 ft 204 kts 36°
2026-05-07 02:24 37.83288 -78.33548 6994 ft 204 kts 36°
2026-05-07 02:24 37.84397 -78.32431 6980 ft 205 kts 36°
2026-05-07 02:25 37.85512 -78.31310 6975 ft 204 kts 36°
2026-05-07 02:25 37.86623 -78.30189 6974 ft 204 kts 36°
2026-05-07 02:25 37.87734 -78.29074 6994 ft 203 kts 36°
2026-05-07 02:25 37.88837 -78.27962 7000 ft 203 kts 36°
2026-05-07 02:26 37.89943 -78.26847 7000 ft 204 kts 36°
2026-05-07 02:26 37.91054 -78.25729 6998 ft 204 kts 36°
2026-05-07 02:26 37.92162 -78.24611 6995 ft 204 kts 36°
2026-05-07 02:26 37.93272 -78.23493 6998 ft 204 kts 36°
2026-05-07 02:27 37.94377 -78.22374 6997 ft 204 kts 36°
2026-05-07 02:27 37.95491 -78.21252 6995 ft 204 kts 36°
2026-05-07 02:27 37.96588 -78.20144 6991 ft 204 kts 36°
2026-05-07 02:27 37.97697 -78.19025 6995 ft 204 kts 36°
2026-05-07 02:28 37.98804 -78.17905 6995 ft 204 kts 36°
2026-05-07 02:28 37.99916 -78.16780 6995 ft 204 kts 36°
2026-05-07 02:28 38.01026 -78.15662 6998 ft 204 kts 34°
2026-05-07 02:28 38.02280 -78.14891 7000 ft 199 kts 12°
2026-05-07 02:29 38.03594 -78.14320 6999 ft 200 kts 15°
2026-05-07 02:29 38.04902 -78.13708 7001 ft 200 kts 15°
2026-05-07 02:29 38.06213 -78.13108 7002 ft 200 kts 14°
2026-05-07 02:29 38.07528 -78.12511 6999 ft 201 kts 14°
2026-05-07 02:30 38.08833 -78.11921 6997 ft 203 kts 13°
2026-05-07 02:30 38.10170 -78.11311 6995 ft 204 kts 13°
2026-05-07 02:30 38.11508 -78.10702 6996 ft 205 kts 13°
2026-05-07 02:30 38.12856 -78.10088 7001 ft 206 kts 13°
2026-05-07 02:31 38.14205 -78.09471 7002 ft 206 kts 13°
2026-05-07 02:31 38.15549 -78.08858 7002 ft 205 kts 13°
2026-05-07 02:31 38.16897 -78.08244 7003 ft 206 kts 13°
2026-05-07 02:31 38.18246 -78.07628 7002 ft 206 kts 13°
2026-05-07 02:32 38.19600 -78.07010 6996 ft 207 kts 13°
2026-05-07 02:32 38.20959 -78.06390 6998 ft 208 kts 13°
2026-05-07 02:32 38.22321 -78.05767 7004 ft 208 kts 13°
2026-05-07 02:32 38.23664 -78.05152 7003 ft 208 kts 13°
2026-05-07 02:33 38.25027 -78.04529 6994 ft 208 kts 13°
2026-05-07 02:33 38.26386 -78.03908 7002 ft 207 kts 13°
2026-05-07 02:33 38.27744 -78.03286 7001 ft 208 kts 13°
2026-05-07 02:33 38.29136 -78.02653 7001 ft 207 kts 13°
2026-05-07 02:34 38.30492 -78.02030 7003 ft 207 kts 13°
2026-05-07 02:34 38.31847 -78.01409 7002 ft 207 kts 13°
2026-05-07 02:34 38.33204 -78.00789 7001 ft 207 kts 13°
2026-05-07 02:34 38.34566 -78.00165 6993 ft 208 kts 13°
2026-05-07 02:35 38.35924 -77.99542 6991 ft 208 kts 13°
2026-05-07 02:35 38.37265 -77.98927 6990 ft 208 kts 13°
2026-05-07 02:35 38.38624 -77.98303 6992 ft 208 kts 13°
2026-05-07 02:35 38.40002 -77.97672 6991 ft 208 kts 13°
2026-05-07 02:36 38.41343 -77.97057 6991 ft 207 kts 13°
2026-05-07 02:36 38.42697 -77.96434 6987 ft 207 kts 13°
2026-05-07 02:36 38.44056 -77.95810 6988 ft 208 kts 13°
2026-05-07 02:36 38.45408 -77.95187 6987 ft 206 kts 13°
2026-05-07 02:37 38.46760 -77.94567 6989 ft 207 kts 13°
2026-05-07 02:37 38.48114 -77.93944 6988 ft 207 kts 13°
2026-05-07 02:37 38.49464 -77.93322 6987 ft 206 kts 13°
2026-05-07 02:37 38.50815 -77.92704 6983 ft 206 kts 13°
2026-05-07 02:38 38.52166 -77.92082 6990 ft 207 kts 13°
2026-05-07 02:38 38.53522 -77.91454 6988 ft 207 kts 13°
2026-05-07 02:38 38.54874 -77.90829 6985 ft 206 kts 13°
2026-05-07 02:38 38.56222 -77.90208 6989 ft 206 kts 13°
2026-05-07 02:39 38.57578 -77.89584 6989 ft 207 kts 13°
2026-05-07 02:39 38.58865 -77.88737 6978 ft 213 kts 35°
2026-05-07 02:39 38.59942 -77.87420 6978 ft 215 kts 44°
2026-05-07 02:39 38.61013 -77.86057 6999 ft 213 kts 42°
2026-05-07 02:40 38.62082 -77.84795 7013 ft 211 kts 41°
2026-05-07 02:40 38.63147 -77.83552 7014 ft 210 kts 41°
2026-05-07 02:40 38.64222 -77.82287 7012 ft 210 kts 41°
2026-05-07 02:40 38.65294 -77.81014 6923 ft 210 kts 42°
2026-05-07 02:41 38.66359 -77.79743 6791 ft 208 kts 41°
2026-05-07 02:41 38.67422 -77.78488 6667 ft 208 kts 41°
2026-05-07 02:41 38.68485 -77.77236 6539 ft 208 kts 41°
2026-05-07 02:41 38.69542 -77.75986 6414 ft 207 kts 41°
2026-05-07 02:42 38.70599 -77.74737 6286 ft 207 kts 41°
2026-05-07 02:42 38.71652 -77.73490 6162 ft 206 kts 41°
2026-05-07 02:42 38.72700 -77.72247 6037 ft 205 kts 41°
2026-05-07 02:42 38.73750 -77.71003 5910 ft 206 kts 41°
2026-05-07 02:43 38.74787 -77.69774 5787 ft 206 kts 41°
2026-05-07 02:43 38.75836 -77.68529 5662 ft 205 kts 41°
2026-05-07 02:43 38.76881 -77.67289 5538 ft 204 kts 41°
2026-05-07 02:43 38.77925 -77.66051 5408 ft 204 kts 41°
2026-05-07 02:44 38.78967 -77.64812 5283 ft 204 kts 41°
2026-05-07 02:44 38.80011 -77.63572 5144 ft 205 kts 41°
2026-05-07 02:44 38.81054 -77.62330 4995 ft 205 kts 41°
2026-05-07 02:44 38.82099 -77.61088 4844 ft 204 kts 41°
2026-05-07 02:45 38.83138 -77.59852 4695 ft 205 kts 41°
2026-05-07 02:45 38.84181 -77.58609 4550 ft 205 kts 41°
2026-05-07 02:45 38.85228 -77.57362 4394 ft 204 kts 41°
2026-05-07 02:45 38.86271 -77.56121 4242 ft 204 kts 41°
2026-05-07 02:46 38.87311 -77.54881 4096 ft 204 kts 38°
2026-05-07 02:46 38.88374 -77.53663 3947 ft 205 kts 43°
2026-05-07 02:46 38.89398 -77.52404 3793 ft 204 kts 44°
2026-05-07 02:46 38.90529 -77.51315 3576 ft 205 kts 18°
2026-05-07 02:47 38.91871 -77.50828 3459 ft 193 kts
2026-05-07 02:47 38.93155 -77.50550 3171 ft 185 kts 359°
2026-05-07 02:47 38.94444 -77.50399 2762 ft 185 kts 352°
2026-05-07 02:47 38.95677 -77.50541 2449 ft 173 kts 336°
2026-05-07 02:48 38.96812 -77.50867 2344 ft 158 kts 335°
2026-05-07 02:48 38.97802 -77.51325 2252 ft 142 kts 331°
2026-05-07 02:48 38.98665 -77.51824 2131 ft 136 kts 336°
2026-05-07 02:48 38.99555 -77.52255 1926 ft 138 kts 338°
2026-05-07 02:49 39.00464 -77.52624 1779 ft 133 kts 339°
2026-05-07 02:49 39.01296 -77.53009 1694 ft 121 kts 340°
2026-05-07 02:49 39.02103 -77.53310 1560 ft 116 kts 343°
2026-05-07 02:49 39.02851 -77.53649 1423 ft 114 kts 339°
2026-05-07 02:50 39.03609 -77.53958 1251 ft 113 kts 343°
2026-05-07 02:50 39.04355 -77.54277 1007 ft 116 kts 341°
2026-05-07 02:50 39.05101 -77.54593 862 ft 109 kts 342°
2026-05-07 02:50 39.05776 -77.54878 739 ft 99 kts 339°
2026-05-07 02:51 39.06364 -77.55142 599 ft 83 kts 342°
2026-05-07 02:51 39.06888 -77.55367 481 ft 77 kts 341°
2026-05-07 02:51 39.07371 -77.55565 396 ft 67 kts 341°
2026-05-07 02:51 39.07747 -77.55729 391 ft 51 kts 340°
2026-05-07 02:52 39.08013 -77.55825 383 ft 12 kts 40°
2026-05-07 02:52 39.08060 -77.55769 383 ft 6 kts 339°
2026-05-07 02:52 39.08061 -77.55769 383 ft 0 kts 340°
2026-05-07 02:53 39.08091 -77.55782 382 ft 13 kts 343°
2026-05-07 02:53 39.08200 -77.55831 380 ft 19 kts 339°
2026-05-07 02:53 39.08286 -77.55865 380 ft 20 kts 339°
2026-05-07 02:54 39.08423 -77.55925 378 ft 17 kts 342°
2026-05-07 02:54 39.08488 -77.55897 380 ft 13 kts 111°
2026-05-07 02:54 39.08449 -77.55820 382 ft 9 kts 165°
2026-05-07 02:54 39.08419 -77.55812 382 ft 2 kts 180°
2026-05-07 02:55 39.08409 -77.55800 382 ft 0 kts 80°